Location: Tucson
(32.2217°N, 110.9265°W)
Time: 12:24:23
(UTC-07:00)

Tiangong 2 - Visible Passes

Search period start: 21 September 2017 00:00
Search period end: 01 October 2017 00:00
Orbit: 389 x 393 km, 42.8° (Epoch: 21 September)

Date Brightness Start Highest point End Pass type
(mag) Time Alt. Az. Time Alt. Az. Time Alt. Az.
21 Sep 1.6 19:02:29 10° WNW 19:05:38 56° SW 19:08:35 11° SE visible
22 Sep 4.0 19:43:24 10° WSW 19:44:46 12° SW 19:46:09 10° SSW visible
23 Sep 3.3 18:44:52 10° W 18:47:31 24° SW 18:50:09 10° SSE visible
